www.pogodaiklimat.ru

Погода и климат >> Архив погоды >> Монголия >> Замун-Ууд


ПОГОДА в Замун-Ууде

  • Прогноз погоды в Замун-Ууде
  • Монитор погоды в Замун-Ууде

АРХИВ ПОГОДЫ в Замун-Ууде

Время (UTC), дата Ветер
(напр.,м/с)
 
Видим.   Явления Облачность Т
(С)
Тd
(С)
f
(%)
Тe
(С)
Тes
(С)
Комфортность P
(гПа)
Po
(гПа)
Тmin
(С)
Tmax
(С)
R
(мм)
R24
(мм)
S
(см)
21 8.09 В 3 н/о 5/0
[Ac lent Cs]
+14.5 +1.7 42 +14 +14 1016.2 905.5
00 9.09 В 5 50 км 6/0
[Cs]
+14.1 +0.7 40 +13 +14 1017.3 906.3 +14.0
03 9.09 В 4 50 км 8/0
[Ac As]
+19.8 +1.7 30 +20 +23 1015.7 907.0
06 9.09 В 3 50 км 3/1 1000 м
[Cu hum Ci]
+23.3 +2.7 26 +23 +31 комфорт 1012.9 905.7
09 9.09 В 2 50 км 8/3 1000 м
[Cu hum Cs]
+23.6 +2.4 25 +23 +24 комфорт 1012.7 905.6
12 9.09 Ю 5 н/о 4/0
[Cs]
+19.0 +7.1 46 +19 +19 1016.1 907.1 +24.2
15 9.09 С 2 н/о 3/0
[Cs]
+14.1 -2.3 32 +14 +14 1019.1 908.0
18 9.09 штиль 0 н/о ясно +12.4 +7.1 70 +12 +12 1020.0 908.2
21 9.09 В 2 н/о ясно +11.1 +6.6 74 +10 +10 1021.4 908.9
00 10.09 В 2 50 км ясно +13.6 +7.6 67 +13 +15 1022.0 910.4 +10.1
03 10.09 ЮВ 5 50 км ясно +20.4 +7.4 43 +21 +27 комфорт 1019.0 910.1
06 10.09 ЮВ 4 50 км 1/1 1000 м
[Cu hum]
+25.0 +3.6 25 +24 +31 комфорт 1015.2 908.4
09 10.09 ЮВ 4 50 км 3/3 1000 м
[Cu hum Ci]
+25.5 +2.2 22 +24 +25 комфорт 1014.6 907.9
12 10.09 ЮВ 2 н/о 1/0
[Ci fib]
+22.2 +1.8 26 +22 +22 комфорт 1016.9 908.8 +26.3
15 10.09 Ю 2 н/о 3/0
[Ci]
+17.3 +9.0 58 +18 +18 1019.7 909.6
18 10.09 ЮВ 3 н/о 3/0
[Ac lent Ci]
+15.3 +10.1 71 +15 +15 1020.5 909.7
21 10.09 В 2 н/о ясно +12.7 +9.0 78 +12 +12 1020.8 909.0
00 11.09 ЮВ 4 50 км 8/0
[Ac cast Cs]
+15.3 +11.9 80 +14 +15 1019.3 908.5 +12.5
03 11.09 ЮВ 6 50 км 8/0
[Ac cast Cs]
+21.4 +12.0 55 +24 +26 комфорт 1015.6 907.4
06 11.09 Ю 7 20 км осадки на расстоянии 10/10 600 м
[Frnb]
+22.9 +12.5 52 +26 +26 жарко 1012.7 905.3
09 11.09 Ю 5 20 км слаб. дождь 10/0 600 м
[As op]
+17.5 +17.5 100 +17 +17 1013.6 904.2
12 11.09 Ю 6 н/о в посл. час дождь 10/0 600 м
[Ac und]
+15.5 +15.5 100 +14 +14 1014.4 904.3 +24.3 3
15 11.09 ЮВ 4 н/о 8/0
[Ac und]
+14.4 +13.8 96 +13 +13 1013.6 903.2
18 11.09 В 2 н/о 3/0
[Ac lent]
+13.1 +13.1 100 +12 +12 1012.9 902.0
21 11.09 Ю 3 н/о ясно +12.6 +12.6 100 +11 +11 1012.4 901.5
00 12.09 Ю 3 50 км 8/0
[Cs]
+15.2 +15.0 99 +14 +16 1010.4 900.6 +12.0
03 12.09 ЮЗ 5 50 км 8/8 1000 м
[Sc]
+19.0 +15.5 80 +20 +21 1009.9 901.5
06 12.09 З 4 50 км 10/10 1000 м
[Sc]
+20.6 +15.2 71 +24 +24 комфорт 1007.8 900.2
09 12.09 СЗ 5 50 км 10/10 1000 м
[Sc]
+21.5 +12.9 58 +24 +24 комфорт 1007.1 899.8
12 12.09 З 4 н/о 8/8 600 м
[Sc]
+16.2 +13.3 83 +15 +15 1011.1 901.6 +22.2
15 12.09 З 5 н/о 6/0
[Ac und]
+14.2 +11.9 86 +12 +12 1014.1 903.6
18 12.09 З 4 н/о 5/0
[Ac trans]
+12.1 +11.7 97 +10 +10 1015.9 904.4
21 12.09 СЗ 2 н/о ясно +10.2 +9.7 97 +9 +9 1017.2 904.8
00 13.09 СЗ 3 50 км 3/0
[Ac lent]
+11.7 +7.4 75 +10 +11 1018.8 906.8 +9.3
03 13.09 СЗ 4 50 км 3/0
[Ci]
+16.2 +5.7 50 +16 +22 1018.0 907.7
06 13.09 СЗ 4 50 км 3/3 1000 м
[Cu hum]
+19.4 -1.0 25 +19 +25 1015.6 906.7
09 13.09 СЗ 3 50 км 6/3 1000 м
[Cu hum Ac trans Cc]
+20.2 -0.7 25 +21 +22 комфорт 1014.6 906.1
12 13.09 В 2 н/о 8/4 1000 м
[Sc diur, vesp Ac As Cs]
+17.8 -0.5 29 +18 +18 1016.1 906.6 +21.1
15 13.09 СЗ 4 н/о 8/3 1000 м
[Sc diur, vesp Ac As]
+14.8 +1.3 40 +14 +14 1018.6 907.7
18 13.09 ЮЗ 1 н/о ясно +17.7 +1.4 33 +19 +19 1019.5 907.4
21 13.09 Ю 2 н/о ясно +8.1 +0.3 58 +7 +7 1020.5 906.9
00 14.09 ЮЗ 4 50 км ясно +10.9 -0.3 46 +9 +10 1020.1 907.7 +5.8
03 14.09 ЮЗ 4 50 км 3/0
[Ci]
+21.2 -1.4 22 +21 +27 комфорт 1015.0 906.8
06 14.09 З 8 50 км 4/0
[Cs]
+23.6 -6.4 13 +22 +23 комфорт 1011.7 904.7
09 14.09 З 7 50 км 6/0
[Cs]
+23.4 -5.6 14 +21 +22 комфорт 1009.8 903.0
12 14.09 З 4 н/о 3/0
[Ci]
+17.9 -4.1 22 +18 +18 1012.6 903.5 +24.2
15 14.09 ЮЗ 4 н/о ясно +13.5 -4.2 29 +12 +12 1014.0 903.1
18 14.09 ЮЗ 2 н/о 3/0
[Ci]
+10.6 -4.6 34 +10 +10 1014.7 902.7
21 14.09 З 4 н/о ясно +10.9 -4.7 33 +9 +9 1014.0 902.3
00 15.09 СЗ 3 50 км ясно +13.2 -2.3 34 +12 +14 1015.5 904.4 +10.4
03 15.09 С 4 50 км ясно +18.8 -2.8 23 +19 +26 1015.6 906.5
06 15.09 СЗ 5 50 км ясно +20.3 -2.7 21 +20 +26 1014.6 906.2
09 15.09 СЗ 5 50 км ясно +19.0 -4.5 20 +19 +20 1016.5 907.3
12 15.09 СЗ 2 н/о ясно +14.8 -3.0 29 +15 +15 1020.0 909.0 +21.1
15 15.09 С 1 н/о ясно +11.1 -2.7 38 +11 +11 1022.9 910.2
18 15.09 Ю 1 н/о ясно +6.4 -3.5 49 +6 +6 1024.5 909.8

 

Местоположение метеостанции Замун-Ууд (Монголия): широта 43.73 долгота 111.90 высота над уровнем моря 964 м.

В архиве по умолчанию представлена погода в Замун-Ууде за последнюю неделю. Архивные данные за месяц целиком и за предыдущие месяцы, начиная с января 2011 года, Вы можете получить, выбрав интересующий диапазон дат из раскрывающегося списка и нажав кнопку "Ввод!".


*Определитесь, кто Вы:
робот инопланетянин человек

Внимание! Время в таблицах - всемирное. Для получения местного времени необходимо прибавить поправку, которая равна 8 ч.

Смотрите также архив погоды в соседних городах и на ближайших метеорологических станциях:

Погода в Эрэн-Хото (Внутренняя Монголия, Китай) (12 км)
Погода в Чжурихе Чжень (Внутренняя Монголия, Китай) (169 км)
Погода в Сайншанде (Монголия) (193 км)
Погода в Мандале (Внутренняя Монголия, Китай) (196 км)
Погода в Нарэнбаулаге (Внутренняя Монголия, Китай) (205 км)
Погода в Баяндэлгэре (Монголия) (225 км)
Погода в Хатанбулаге (Монголия) (226 км)
Погода в Баянчагане (Внутренняя Монголия, Китай) (247 км)
Погода в Дархан-Мумингане (Внутренняя Монголия, Китай) (256 км)
Погода в Хуадэ (Внутренняя Монголия, Китай) (266 км)

Пояснения к столбцам:

Ветер - указаны скорость ветра в м/с - средняя за 10 мин, порывы в срок и между сроками (в фигурных скобках) и направление, откуда дует ветер: С - северный, СВ - северо-восточный, В - восточный, ЮВ - юго-восточный, Ю - южный, ЮЗ - юго-западный, З - западный, СЗ - северо-западный.
Видимость - горизонтальная дальность видимости в метрах или километрах. При видимости от 1 до 10 км при отсутствии осадков обычно наблюдается дымка, при ухудшении видимости до 1 км и менее - туман. В сухую погоду видимость может ухудшаться дымом, пылью или мглою.
Явления - указаны атмосферные явления, наблюдавшиеся в срок или в последний час перед сроком; фигурными скобками обозначены явления, наблюдавшиеся между сроками (за 1-3 часа до срока); квадратными скобками обозначены град или гололедные отложения с указанием их диаметра в мм.
Облачность - указаны через наклонную черту общая и нижняя облачность в баллах и высота нижней границы облаков в метрах; квадратными скобками обозначены формы облаков: Ci - перистые, Cs - перисто-слоистые, Cc - перисто-кучевые, Ac - высококучевые, As - высокослоистые, Sc - слоисто-кучевые, Ns - слоисто-дождевые, Cu - кучевые, Cb - кучево-дождевые. Подробнее классификацию облаков см. в Атласе облаков (PDF).
T - Температура воздуха - температура, измеренная на высоте 2 м над землей.
Td - Температура точки росы - температура, при понижении до которой содержащийся в воздухе водяной пар достигнет насыщения.
f - Относительная влажность воздуха - влажноcть воздуха, измеренная на высоте 2 м над землей.
Te - Эффективная температура - температура, которую ощущает одетый по сезону человек в тени. Характеристика душности погоды. При расчете учитывается влияние влажности воздуха и скорости ветра на теплоощущения человека.
Tes - Эффективная температура на солнце - температура, которую ощущает человек, с поправкой на солнечный нагрев. Характеристика знойности погоды. Зависит от высоты солнца над горизонтом, облачности и скорости ветра. Ночью, в пасмурную погоду, а также при ветре 12 м/с и более поправка равна нулю.
P - Атмосферное давление - приведенное к уровню моря атмосферное давление.
Po - Атмосферное давление - измеренное на уровне метеостанции атмосферное давление.
Tmin - Минимальная температура - минимум температуры воздуха на высоте 2 м над землей.
Tmax - Максимальная температура - максимум температуры воздуха на высоте 2 м над землей.
R - Количество осадков - Количество выпавших осадков за период времени, мм. При наведении курсора мыши на число - период времени, за который выпало указанное количество осадков.
R24 - Количество осадков - Количество выпавших осадков за 24 часа, мм.
S - Снежный покров - Высота снежного покрова, см. При наведении курсора мыши на число - состояние снежного покрова и степень покрытия местности в баллах.